Tracking 30685 objects as of 18-Jun-2025
HD Live streaming from Space Station
objects crossing your sky now

USA 382

Track USA 382 now!
10-day predictions


NORAD ID: 60165
Int'l Code: 2024-121H
Perigee: 580.9 km
Apogee: 587.5 km
Inclination: 70.0 °
Period: 96.2 minutes
Semi major axis: 6955 km
RCS: Unknown
Launch date: June 29, 2024
Source: United States (US)
Launch site: AIR FORCE WESTERN TEST RANGE (AFWTR)
Your satellite tracking list
Your tracking list is empty




NASA's NSSDC Master Catalog

Two Line Element Set (TLE):
1 60165U 24121H   25103.79330451 0.00000000  00000-0  00000-0 0    04
2 60165  70.0001  26.3411 0004713 249.3089 110.6911 14.96714938    06
Source of the keplerian elements: McCants